Location: ?????
(31.8092°N, 35.2590°E)
Time: 18:44:49
(UTC+00:00)

Cosmos 2098 Rocket - Pass Details

Date: 20 June 2021
Orbit: 366 x 1176 km, 82.9° (Epoch: 31 July)

Event Time Altitude Azimuth Distance (km) Brightness Sun altitude
Exits shadow 22:58:21 46° 349° (N) 1,036 4.4 -31.7°
Drops below altitude 10° 23:01:40 10° 1° (N) 2,157 6.6 -31.5°
Sets 23:03:43 0° 3° (N) 2,958 7.5 -31.3°
